[[{"header":{"parameterUnit":"m.s-1","parameterCategory":1,"la1":30.2991,"la2":30.254,"lo1":-89.0895,"lo2":-89.0444,"dy":0.0017,"dx":0.0017,"nx":28,"ny":28,"refTime":"2024-04-24T21:00:00:Z","depth":0,"parameterNumber":2,"parameterNumberName":"U-component_of_WINDS"},"data":[0,0,0,0,0,0,0,0,0,0,0,0,0,0,0,0,0,0,0,0,0,0,0,0,0,0,0,0,0,0,0,0,0,0,0,0,0,0,0,0,0,0,0,0,0,0,0,0,0,0,0,0,0,0,0,0,0,0,-0.1296,-0.1295,0,-0.1209,-0.1208,-0.1207,-0.116,-0.116,-0.116,-0.1159,-0.1071,-0.1069,-0.1067,0,0,0,0,0,0,0,0,0,0,0,0,0,-0.1421,-0.1418,-0.1296,-0.1295,-0.1294,-0.121,-0.1208,-0.1207,-0.116,-0.116,-0.116,-0.1159,-0.1072,-0.1069,-0.1067,0,0,0,0,0,0,0,0,0,0,0,0,0,-0.1354,-0.1418,-0.1296,-0.126,-0.1256,-0.121,-0.1208,-0.1207,-0.116,-0.116,-0.1159,-0.1159,-0.1073,-0.107,-0.1066,-0.105,0,0,-0.1056,-0.1055,0,0,0,0,0,0,0,0,-0.1357,-0.1349,-0.1266,-0.1262,-0.1258,-0.1195,-0.122,-0.1154,-0.116,-0.1196,-0.1159,-0.1159,-0.1113,-0.1106,-0.109,-0.1045,-0.1042,-0.1056,-0.1054,-0.1052,-0.1051,0,0,0,0,0,0,0,-0.1362,-0.1352,-0.1262,-0.1265,-0.126,-0.1248,-0.1239,-0.1207,-0.1157,-0.1193,-0.1189,-0.118,-0.111,-0.1094,-0.1088,-0.104,-0.1056,-0.1053,-0.1051,-0.1049,-0.0978,-0.0978,0,0,0,0,0,0,-0.1372,-0.1357,-0.1264,-0.1259,-0.1308,-0.1246,-0.1235,-0.1215,-0.1157,-0.1148,-0.118,-0.1178,-0.1099,-0.1092,-0.1084,-0.1061,-0.1052,-0.1049,-0.1047,-0.0978,-0.0978,-0.0978,0,0,0,0,0,0,-0.1375,-0.1365,-0.1268,-0.1307,-0.1294,-0.1244,-0.1222,-0.1214,-0.1197,-0.1147,-0.1138,-0.1172,-0.1099,-0.1089,-0.1059,-0.1058,-0.1048,-0.1045,-0.0978,-0.0978,-0.0978,-0.1015,0,0,0,0,0,0,-0.1379,-0.1366,-0.1359,-0.1307,-0.1292,-0.1243,-0.1222,-0.1212,-0.1191,-0.1188,-0.1137,-0.1129,-0.1098,-0.1064,-0.1055,-0.1053,-0.1042,-0.0978,-0.0978,-0.0978,-0.1013,-0.1016,-0.1019,0,0,0,0,0,-0.1384,-0.1372,-0.1359,-0.1348,-0.1282,-0.1243,-0.1235,-0.1199,-0.1192,-0.1184,-0.1152,-0.113,-0.1059,-0.1061,-0.1051,-0.1048,-0.0978,-0.0978,-0.0978,-0.1012,-0.1016,-0.1019,0,0,0,0,0,0,-0.1425,-0.1365,-0.1349,-0.1321,-0.1288,-0.1235,-0.1225,-0.1204,-0.1172,-0.117,-0.1128,-0.1117,-0.1091,-0.1066,-0.1069,-0.1029,-0.1016,-0.1015,-0.1046,-0.1048,-0.1051,-0.1057,-0.1039,0,0,0,0,0,-0.1431,-0.1405,-0.1354,-0.1334,-0.1318,-0.1275,-0.1256,-0.1232,-0.1196,-0.1182,-0.1148,-0.1114,-0.1084,-0.1065,-0.1034,-0.101,-0.0998,-0.1003,-0.1005,-0.1008,-0.1006,-0.0992,-0.0994,-0.0979,-0.0979,-0.0979,0,0,-0.1443,-0.1407,-0.1393,-0.1341,-0.1313,-0.1287,-0.1263,-0.1236,-0.1217,-0.1178,-0.1147,-0.1121,-0.108,-0.1053,-0.1039,-0.1032,-0.1008,-0.1008,-0.101,-0.1008,-0.0993,-0.0994,-0.0995,-0.0979,-0.0979,-0.0979,0,0,-0.1452,-0.1421,-0.1401,-0.1374,-0.1331,-0.1302,-0.1298,-0.1249,-0.123,-0.1198,-0.1169,-0.1145,-0.1094,-0.1067,-0.1046,-0.1045,-0.1024,-0.1036,-0.1049,-0.1036,-0.1037,-0.1038,-0.1038,-0.1038,-0.1036,-0.1036,-0.1036,0,-0.1472,-0.1431,-0.1394,-0.1369,-0.1347,-0.1312,-0.1291,-0.1266,-0.1216,-0.1202,-0.1194,-0.113,-0.11,-0.1066,-0.1066,-0.105,-0.1044,-0.1042,-0.104,-0.1041,-0.1041,-0.104,-0.104,-0.1037,-0.1037,-0.1037,-0.1037,0,-0.1458,-0.143,-0.142,-0.1372,-0.1349,-0.1327,-0.1287,-0.1268,-0.1246,-0.1219,-0.1188,-0.1151,-0.1112,-0.1103,-0.1081,-0.1066,-0.1062,-0.1048,-0.1035,-0.1045,-0.1043,-0.1043,-0.104,-0.1039,-0.1039,-0.1038,0,0,-0.149,-0.1422,-0.1419,-0.1397,-0.1347,-0.1325,-0.1302,-0.1265,-0.125,-0.1216,-0.1196,-0.1154,-0.1141,-0.1117,-0.1093,-0.1081,-0.1083,-0.1068,-0.1066,-0.1072,-0.1064,-0.1075,-0.1076,-0.1069,-0.1069,-0.1069,-0.1068,0,-0.1491,-0.1446,-0.1413,-0.1381,-0.1355,-0.1321,-0.1301,-0.1269,-0.1242,-0.1217,-0.1188,-0.1159,-0.1144,-0.113,-0.1117,-0.1086,-0.1081,-0.1085,-0.1049,-0.1049,-0.106,-0.1075,-0.1086,-0.1087,-0.1067,-0.1067,-0.1067,0,-0.1486,-0.1454,-0.142,-0.1374,-0.1361,-0.1344,-0.1307,-0.1283,-0.1246,-0.1228,-0.1203,-0.1177,-0.1151,-0.1141,-0.1105,-0.1108,-0.1092,-0.1075,-0.1074,-0.1069,-0.1058,-0.107,-0.1086,-0.1087,-0.1066,-0.1066,-0.1066,0,-0.1513,-0.1461,-0.1434,-0.1416,-0.1362,-0.135,-0.1327,-0.1289,-0.1269,-0.1238,-0.1224,-0.119,-0.1171,-0.1146,-0.1112,-0.1107,-0.108,-0.1066,-0.1064,-0.1065,-0.1059,-0.106,-0.1073,-0.1049,-0.1049,-0.1049,-0.1049,0,-0.1517,-0.1498,-0.1445,-0.1429,-0.1406,-0.1368,-0.1347,-0.1321,-0.1288,-0.1266,-0.1235,-0.1215,-0.1172,-0.1147,-0.112,-0.1095,-0.1086,-0.1071,-0.1064,-0.1074,-0.1076,-0.1062,-0.1061,-0.1049,-0.1049,-0.1049,-0.1049,0,-0.1543,-0.1507,-0.1475,-0.1426,-0.1413,-0.1399,-0.1357,-0.134,-0.1313,-0.1285,-0.1277,-0.1234,-0.1203,-0.1167,-0.1124,-0.1106,-0.1083,-0.1073,-0.1095,-0.1091,-0.1091,-0.1092,-0.1095,-0.1094,-0.1072,-0.1072,-0.1072,0,-0.1548,-0.1533,-0.1482,-0.1465,-0.1442,-0.1415,-0.1395,-0.1357,-0.1337,-0.1294,-0.1282,-0.1249,-0.1221,-0.1173,-0.1138,-0.1106,-0.1094,-0.1098,-0.1089,-0.11,-0.1094,-0.1096,-0.1094,-0.11,-0.1101,-0.1101,-0.1101,0,-0.1562,-0.1545,-0.1516,-0.1481,-0.1458,-0.1429,-0.1398,-0.1386,-0.1342,-0.1322,-0.129,-0.1268,-0.1224,-0.1192,-0.1155,-0.1131,-0.1109,-0.1105,-0.1102,-0.1112,-0.1126,-0.1118,-0.1102,-0.1105,-0.1104,-0.1104,-0.1104,-0.1104,-0.1577,-0.1562,-0.1524,-0.1493,-0.1466,-0.1439,-0.142,-0.1391,-0.1363,-0.1325,-0.1304,-0.1273,-0.1237,-0.1185,-0.1163,-0.1138,-0.113,-0.1127,-0.1126,-0.1126,-0.1129,-0.113,-0.1131,-0.1131,-0.1131,-0.1131,-0.1131,0,-0.1589,-0.1563,-0.1535,-0.1494,-0.147,-0.1451,-0.1417,-0.1398,-0.1371,-0.1339,-0.1311,-0.1275,-0.1244,-0.1207,-0.1173,-0.116,-0.115,-0.1153,-0.1153,-0.1148,-0.1137,-0.1143,-0.1162,-0.1162,-0.1162,-0.1162,-0.1162,-0.1162,-0.1593,-0.1566,-0.1544,-0.1504,-0.1478,-0.1447,-0.1429,-0.1403,-0.1378,-0.1338,-0.1312,-0.1288,-0.1254,-0.1218,-0.1189,-0.1179,-0.1168,-0.1174,-0.1161,-0.1152,-0.1149,-0.1146,-0.1151,-0.1172,-0.1172,-0.1174,-0.1174,-0.1174]},{"header":{"parameterUnit":"m.s-1","parameterCategory":1,"la1":30.2991,"la2":30.254,"lo1":-89.0895,"lo2":-89.0444,"dy":0.0017,"dx":0.0017,"nx":28,"ny":28,"refTime":"2024-04-24T21:00:00:Z","depth":0,"parameterNumber":3,"parameterNumberName":"V-component_of_WINDS"},"data":[0,0,0,0,0,0,0,0,0,0,0,0,0,0,0,0,0,0,0,0,0,0,0,0,0,0,0,0,0,0,0,0,0,0,0,0,0,0,0,0,0,0,0,0,0,0,0,0,0,0,0,0,0,0,0,0,0,0,3.2311,3.231,0,3.225,3.225,3.2249,3.2281,3.2283,3.2284,3.2286,3.2216,3.2213,3.221,0,0,0,0,0,0,0,0,0,0,0,0,0,3.2449,3.2446,3.2311,3.231,3.231,3.225,3.225,3.2249,3.2281,3.2283,3.2285,3.2287,3.2217,3.2213,3.2209,0,0,0,0,0,0,0,0,0,0,0,0,0,3.2388,3.2445,3.2311,3.2319,3.2319,3.2251,3.225,3.2248,3.228,3.2283,3.2285,3.2287,3.2219,3.2214,3.2209,3.2128,0,0,3.2193,3.2191,0,0,0,0,0,0,0,0,3.2392,3.2383,3.2318,3.2318,3.2318,3.2276,3.2273,3.2208,3.228,3.2295,3.2286,3.2289,3.2234,3.2228,3.221,3.2125,3.2122,3.2193,3.219,3.2188,3.2186,0,0,0,0,0,0,0,3.2396,3.2386,3.2287,3.2317,3.2317,3.2323,3.2317,3.226,3.2251,3.2293,3.2296,3.2288,3.2234,3.2215,3.2209,3.2121,3.2193,3.2188,3.2185,3.2183,3.1965,3.1963,0,0,0,0,0,0,3.2401,3.2389,3.2289,3.2285,3.2362,3.2318,3.2312,3.2287,3.2251,3.2249,3.2286,3.229,3.2223,3.2215,3.2207,3.211,3.2188,3.2183,3.218,3.1968,3.1965,3.1962,0,0,0,0,0,0,3.2403,3.2391,3.2291,3.2338,3.2326,3.2313,3.2285,3.2284,3.2266,3.2246,3.2244,3.2269,3.2224,3.2214,3.2148,3.2108,3.2181,3.2176,3.1971,3.1967,3.1963,3.1914,0,0,0,0,0,0,3.2407,3.2392,3.2363,3.2337,3.2323,3.2235,3.2282,3.2281,3.2258,3.2262,3.223,3.2227,3.2226,3.2155,3.2143,3.2102,3.2172,3.1975,3.1969,3.1964,3.192,3.1909,3.19,0,0,0,0,0,3.2412,3.235,3.2361,3.2349,3.2286,3.2233,3.2224,3.2226,3.2254,3.2223,3.2211,3.2228,3.2114,3.2148,3.2134,3.2091,3.1977,3.1971,3.1965,3.1924,3.1911,3.1901,0,0,0,0,0,0,3.2368,3.2347,3.2359,3.2287,3.2262,3.2238,3.2199,3.2213,3.2177,3.2182,3.2184,3.2177,3.2108,3.2093,3.2131,3.2011,3.205,3.204,3.2023,3.2011,3.2002,3.2006,3.2168,0,0,0,0,0,3.2351,3.2311,3.2294,3.2232,3.2219,3.2211,3.2188,3.2192,3.2165,3.2154,3.2136,3.2108,3.2066,3.2038,3.1998,3.1918,3.1911,3.1882,3.1872,3.1864,3.1856,3.1812,3.1799,3.1941,3.1941,3.1941,0,0,3.2313,3.2296,3.2271,3.2222,3.2203,3.216,3.2202,3.2154,3.2122,3.2146,3.2083,3.2069,3.2037,3.1964,3.1931,3.1949,3.1815,3.1856,3.185,3.1846,3.1804,3.1791,3.1779,3.1937,3.1938,3.1939,0,0,3.2222,3.2206,3.2153,3.2134,3.2106,3.2101,3.2089,3.2063,3.2056,3.1994,3.2011,3.1971,3.1899,3.1875,3.1854,3.1756,3.1769,3.1743,3.1692,3.1649,3.1638,3.1628,3.1592,3.158,3.1735,3.1735,3.1734,0,3.2178,3.2117,3.2123,3.2075,3.2053,3.2076,3.2021,3.2001,3.196,3.1943,3.1965,3.1876,3.1855,3.1777,3.1753,3.1736,3.172,3.1746,3.164,3.163,3.162,3.1586,3.1573,3.1731,3.1732,3.1732,3.1732,0,3.2064,3.2021,3.1981,3.1944,3.1917,3.1865,3.1863,3.1834,3.1841,3.1834,3.1769,3.1747,3.1703,3.1685,3.1689,3.1606,3.1619,3.164,3.1679,3.1604,3.1572,3.1559,3.1727,3.1728,3.1729,3.173,0,0,3.1942,3.1911,3.1896,3.188,3.1851,3.1816,3.1766,3.1725,3.1701,3.1672,3.1628,3.1567,3.1587,3.1563,3.1566,3.1528,3.1452,3.1554,3.1553,3.1535,3.1358,3.1342,3.1327,3.1461,3.1459,3.1457,3.1361,0,3.1849,3.1763,3.1768,3.1686,3.1646,3.1667,3.1623,3.1599,3.1591,3.1554,3.1545,3.1502,3.1531,3.1517,3.1481,3.1469,3.1416,3.1476,3.1419,3.1417,3.1426,3.131,3.1293,3.1203,3.1348,3.1346,3.1345,0,3.1729,3.1699,3.1614,3.1592,3.1575,3.1535,3.1499,3.1464,3.1437,3.1434,3.1408,3.1417,3.1364,3.1405,3.1331,3.1372,3.1349,3.1339,3.1336,3.1329,3.1375,3.13,3.1174,3.1161,3.1325,3.1327,3.1328,0,3.1648,3.1586,3.1528,3.1513,3.1486,3.1457,3.1444,3.142,3.1396,3.1363,3.1347,3.1308,3.1286,3.1255,3.1252,3.1283,3.1178,3.1219,3.1172,3.1172,3.1148,3.1149,3.1016,3.1134,3.1135,3.1135,3.1135,0,3.1544,3.149,3.1491,3.1455,3.1396,3.1401,3.1342,3.1331,3.131,3.1271,3.1286,3.1248,3.1248,3.1209,3.1206,3.1145,3.1135,3.113,3.1129,3.1128,3.1128,3.1112,3.1118,3.1131,3.1132,3.1133,3.1133,0,3.1443,3.1442,3.1379,3.1359,3.1353,3.131,3.1292,3.1257,3.1251,3.1201,3.1189,3.1179,3.1134,3.113,3.1076,3.1075,3.1001,3.1007,3.101,3.1011,3.0965,3.0969,3.0815,3.0795,3.0928,3.0926,3.0925,0,3.1376,3.1336,3.1312,3.1289,3.1275,3.1235,3.1211,3.1215,3.1189,3.1156,3.1124,3.1082,3.1048,3.0974,3.0961,3.092,3.0926,3.0875,3.0919,3.0919,3.0924,3.0926,3.0922,3.0866,3.0864,3.0863,3.0862,0,3.1256,3.1258,3.1224,3.119,3.1161,3.1134,3.1108,3.1087,3.1088,3.1057,3.1013,3.0987,3.0934,3.089,3.0851,3.0835,3.0848,3.0849,3.0836,3.0833,3.0836,3.0833,3.0986,3.0852,3.0853,3.0853,3.0854,3.0854,3.1169,3.1135,3.1114,3.1076,3.1057,3.1033,3.0999,3.0991,3.0954,3.0913,3.0917,3.0868,3.0842,3.0791,3.0772,3.0733,3.0749,3.073,3.0725,3.0721,3.0716,3.0844,3.0725,3.0726,3.0726,3.0726,3.0726,0,3.105,3.1038,3.1003,3.0968,3.0938,3.0956,3.0928,3.0901,3.0858,3.0834,3.0801,3.075,3.0708,3.0693,3.0652,3.0623,3.0628,3.0612,3.0613,3.061,3.0703,3.0719,3.0609,3.0609,3.0609,3.0609,3.0609,3.0609,3.0985,3.0928,3.0927,3.0861,3.0848,3.0802,3.0785,3.0762,3.0744,3.0687,3.0653,3.0644,3.0623,3.0581,3.0543,3.054,3.0523,3.0505,3.0503,3.0591,3.0603,3.0614,3.0628,3.0501,3.0501,3.0413,3.0412,3.0411]}]]